Location: Be?i?
(36.9044°N, 30.1006°E)
Time: 10:34:54
(UTC+00:00)

DELTA 2 R/B (1) - Pass Details

Date: 05 August 2024
Orbit: 788 x 800 km, 39.6° (Epoch: 13 September)

Event Time Altitude Azimuth Distance (km) Brightness Sun altitude
Rises 19:10:34 0° 286° (WNW) 3,300 7.8 -22.4°
Reaches altitude 10° 19:13:04 10° 286° (WNW) 2,369 6.9 -22.8°
Maximum altitude 19:18:40 80° 200° (SSW) 813 3.5 -23.5°
Enters shadow 19:19:38 61° 129° (SE) 900 3.5 -23.7°
